| time (UTC) | temp C | wind direction | speed KPH | gust KPH | rain 1hr cm | rain 24hr cm | rain mn cm | humidity % | barometer mb |
| 20260506125537 | 23 | 59 | 0.0 | 0.0 | 0.00 | 0.00 | 0.00 | 94 | 1009.0 |
| 20260506124536 | 23 | 59 | 0.0 | 0.0 | 0.00 | 0.00 | 0.00 | 93 | 1008.9 |
| 20260506123536 | 23 | 59 | 0.0 | 0.0 | 0.00 | 0.00 | 0.00 | 93 | 1008.9 |
| 20260506122536 | 23 | 59 | 0.0 | 0.0 | 0.00 | 0.00 | 0.00 | 93 | 1008.7 |
| 20260506121537 | 23 | 59 | 0.0 | 0.0 | 0.00 | 0.00 | 0.00 | 93 | 1008.8 |
| 20260506120536 | 23 | 59 | 0.0 | 0.0 | 0.00 | 0.00 | 0.00 | 93 | 1008.6 |
| 20260506115536 | 23 | 59 | 0.0 | 0.0 | 0.00 | 0.00 | 0.00 | 93 | 1008.6 |
| 20260506114536 | 23 | 59 | 0.0 | 0.0 | 0.00 | 0.00 | 0.00 | 93 | 1008.4 |
| 20260506113536 | 23 | 59 | 0.0 | 0.0 | 0.00 | 0.00 | 0.00 | 92 | 1008.5 |
| 20260506112536 | 23 | 59 | 0.0 | 0.0 | 0.00 | 0.00 | 0.00 | 92 | 1008.4 |
| 20260506111536 | 23 | 59 | 0.0 | 0.0 | 0.00 | 0.00 | 0.00 | 92 | 1008.3 |
| 20260506110536 | 23 | 59 | 0.0 | 0.0 | 0.00 | 0.00 | 0.00 | 92 | 1008.0 |
| 20260506105536 | 23 | 59 | 0.0 | 0.0 | 0.00 | 0.00 | 0.00 | 92 | 1007.8 |
| 20260506104536 | 23 | 59 | 0.0 | 0.0 | 0.00 | 0.00 | 0.00 | 92 | 1007.6 |
| 20260506103536 | 23 | 59 | 0.0 | 1.6 | 0.00 | 0.00 | 0.00 | 91 | 1007.4 |
| 20260506102536 | 24 | 59 | 0.0 | 1.6 | 0.00 | 0.00 | 0.00 | 91 | 1007.5 |
| 20260506101536 | 24 | 59 | 1.6 | 3.2 | 0.00 | 0.00 | 0.00 | 91 | 1007.6 |
| 20260506100536 | 24 | 40 | 0.0 | 1.6 | 0.00 | 0.00 | 0.00 | 91 | 1007.6 |
| 20260506095536 | 24 | 40 | 0.0 | 1.6 | 0.00 | 0.00 | 0.00 | 91 | 1007.5 |
| 20260506093536 | 24 | 46 | 0.0 | 0.0 | 0.00 | 0.00 | 0.00 | 91 | 1007.2 |
| 20260506092536 | 24 | 46 | 0.0 | 1.6 | 0.00 | 0.00 | 0.00 | 91 | 1007.2 |
| 20260506091536 | 24 | 44 | 0.0 | 3.2 | 0.00 | 0.00 | 0.00 | 91 | 1007.2 |
| 20260506085536 | 24 | 13 | 0.0 | 1.6 | 0.00 | 0.00 | 0.00 | 91 | 1007.1 |
| 20260506084536 | 24 | 13 | 0.0 | 1.6 | 0.00 | 0.00 | 0.00 | 91 | 1007.3 |
| 20260506083536 | 24 | 13 | 0.0 | 1.6 | 0.00 | 0.00 | 0.00 | 91 | 1007.4 |
| 20260506081536 | 24 | 14 | 0.0 | 0.0 | 0.00 | 0.00 | 0.00 | 91 | 1007.5 |
| 20260506080536 | 24 | 14 | 0.0 | 0.0 | 0.00 | 0.00 | 0.00 | 91 | 1007.7 |
| 20260506072536 | 25 | 9 | 0.0 | 1.6 | 0.00 | 0.00 | 0.00 | 90 | 1008.2 |
| 20260506071536 | 25 | 9 | 0.0 | 4.8 | 0.00 | 0.00 | 0.00 | 90 | 1008.3 |
| 20260506061536 | 25 | 36 | 0.0 | 1.6 | 0.00 | 0.00 | 0.00 | 89 | 1008.4 |
| 20260506060535 | 25 | 36 | 0.0 | 0.0 | 0.00 | 0.00 | 0.00 | 89 | 1008.4 |
| 20260506050535 | 25 | 46 | 0.0 | 1.6 | 0.00 | 0.00 | 0.00 | 88 | 1008.2 |
| 20260506044536 | 25 | 26 | 1.6 | 1.6 | 0.00 | 0.00 | 0.00 | 88 | 1008.4 |
| 20260506043535 | 25 | 26 | 0.0 | 1.6 | 0.00 | 0.00 | 0.00 | 88 | 1008.2 |
| 20260506041536 | 25 | 26 | 0.0 | 3.2 | 0.00 | 0.00 | 0.00 | 87 | 1008.4 |
| 20260506040536 | 25 | 26 | 0.0 | 0.0 | 0.00 | 0.00 | 0.00 | 87 | 1008.4 |
| 20260506035535 | 25 | 26 | 0.0 | 1.6 | 0.00 | 0.00 | 0.00 | 87 | 1008.1 |
| 20260506034535 | 25 | 26 | 0.0 | 3.2 | 0.00 | 0.00 | 0.00 | 87 | 1008.0 |
| 20260506033535 | 25 | 108 | 1.6 | 8.0 | 0.00 | 0.00 | 0.00 | 87 | 1007.9 |
| 20260506031536 | 25 | 46 | 0.0 | 3.2 | 0.00 | 0.00 | 0.00 | 86 | 1007.9 |
| 20260506030536 | 25 | 31 | 0.0 | 0.0 | 0.00 | 0.00 | 0.00 | 86 | 1007.7 |
| 20260506025535 | 25 | 31 | 0.0 | 1.6 | 0.00 | 0.00 | 0.00 | 86 | 1007.7 |
| 20260506024536 | 25 | 30 | 0.0 | 1.6 | 0.00 | 0.00 | 0.00 | 86 | 1007.5 |
| 20260506023535 | 25 | 16 | 0.0 | 1.6 | 0.00 | 0.00 | 0.00 | 85 | 1007.2 |
| 20260506022535 | 26 | 16 | 0.0 | 1.6 | 0.00 | 0.00 | 0.00 | 85 | 1006.9 |
| 20260506021536 | 26 | 16 | 0.0 | 1.6 | 0.00 | 0.00 | 0.00 | 85 | 1006.9 |
| 20260506015535 | 26 | 286 | 0.0 | 0.0 | 0.00 | 0.00 | 0.00 | 84 | 1006.6 |
| 20260506014535 | 26 | 286 | 0.0 | 1.6 | 0.00 | 0.00 | 0.00 | 84 | 1006.5 |
| 20260506013535 | 26 | 287 | 0.0 | 1.6 | 0.00 | 0.00 | 0.00 | 84 | 1006.4 |
| 20260506012535 | 26 | 286 | 0.0 | 1.6 | 0.00 | 0.00 | 0.00 | 83 | 1006.3 |
| 20260506011535 | 26 | 286 | 0.0 | 8.0 | 0.00 | 0.00 | 0.00 | 83 | 1006.2 |
| 20260506004535 | 26 | 31 | 0.0 | 1.6 | 0.00 | 0.00 | 0.00 | 83 | 1005.8 |
| 20260506000535 | 27 | 312 | 0.0 | 3.2 | 0.00 | 0.00 | 0.00 | 82 | 1005.8 |
| 20260505235535 | 27 | 66 | 0.0 | 4.8 | 0.00 | 0.00 | 0.00 | 81 | 1005.7 |
| 20260505234535 | 27 | 327 | 0.0 | 6.4 | 0.00 | 0.00 | 0.00 | 81 | 1005.8 |
| 20260505232535 | 28 | 66 | 0.0 | 1.6 | 0.00 | 0.00 | 0.00 | 81 | 1005.5 |
| 20260505231535 | 28 | 68 | 0.0 | 3.2 | 0.00 | 0.00 | 0.00 | 80 | 1005.5 |
| 20260505230535 | 28 | 66 | 0.0 | 3.2 | 0.00 | 0.00 | 0.00 | 80 | 1005.5 |
| 20260505224535 | 28 | 336 | 0.0 | 3.2 | 0.00 | 0.00 | 0.00 | 79 | 1005.6 |
| 20260505223536 | 28 | 286 | 0.0 | 8.0 | 0.00 | 0.00 | 0.00 | 79 | 1005.6 |
| 20260505222535 | 28 | 278 | 0.0 | 8.0 | 0.00 | 0.00 | 0.00 | 79 | 1005.6 |
| 20260505221535 | 28 | 265 | 0.0 | 9.7 | 0.00 | 0.00 | 0.00 | 80 | 1005.7 |
| 20260505220535 | 28 | 80 | 0.0 | 8.0 | 0.00 | 0.00 | 0.00 | 80 | 1005.8 |
| 20260505214535 | 28 | 40 | 0.0 | 4.8 | 0.00 | 0.00 | 0.00 | 80 | 1006.0 |
| 20260505213535 | 28 | 39 | 0.0 | 4.8 | 0.00 | 0.00 | 0.00 | 80 | 1006.2 |
| 20260505212535 | 28 | 239 | 3.2 | 9.7 | 0.00 | 0.00 | 0.00 | 79 | 1006.3 |
| 20260505210535 | 28 | 88 | 0.0 | 3.2 | 0.00 | 0.00 | 0.00 | 79 | 1006.4 |
| 20260505202535 | 28 | 80 | 3.2 | 9.7 | 0.00 | 0.00 | 0.00 | 80 | 1007.0 |
| 20260505200535 | 28 | 76 | 0.0 | 3.2 | 0.00 | 0.00 | 0.00 | 81 | 1007.3 |
| 20260505195535 | 28 | 360 | 0.0 | 6.4 | 0.00 | 0.00 | 0.00 | 80 | 1007.5 |
| 20260505193535 | 28 | 27 | 3.2 | 9.7 | 0.00 | 0.00 | 0.00 | 80 | 1007.8 |
| 20260505191535 | 28 | 11 | 0.0 | 8.0 | 0.00 | 0.00 | 0.00 | 81 | 1007.8 |
| 20260505190535 | 27 | 31 | 4.8 | 8.0 | 0.00 | 0.00 | 0.00 | 81 | 1007.8 |
| 20260505185535 | 27 | 5 | 0.0 | 8.0 | 0.00 | 0.00 | 0.00 | 83 | 1007.8 |
| 20260505183535 | 27 | 333 | 0.0 | 8.0 | 0.00 | 0.00 | 0.00 | 84 | 1008.0 |
| 20260505182535 | 26 | 32 | 3.2 | 6.4 | 0.00 | 0.00 | 0.00 | 84 | 1008.2 |
| 20260505180535 | 26 | 355 | 3.2 | 8.0 | 0.00 | 0.00 | 0.00 | 84 | 1008.4 |
| 20260505175535 | 26 | 63 | 1.6 | 3.2 | 0.00 | 0.00 | 0.00 | 85 | 1008.3 |
| 20260505174535 | 26 | 32 | 0.0 | 4.8 | 0.00 | 0.00 | 0.00 | 86 | 1008.5 |
| 20260505173535 | 26 | 325 | 0.0 | 6.4 | 0.00 | 0.00 | 0.00 | 86 | 1008.6 |
| 20260505172535 | 26 | 355 | 0.0 | 3.2 | 0.00 | 0.00 | 0.00 | 86 | 1008.5 |
| 20260505171535 | 26 | 12 | 1.6 | 8.0 | 0.00 | 0.00 | 0.00 | 85 | 1008.6 |
| 20260505165535 | 26 | 80 | 0.0 | 3.2 | 0.00 | 0.00 | 0.00 | 86 | 1008.8 |
| 20260505164535 | 26 | 33 | 0.0 | 6.4 | 0.00 | 0.00 | 0.00 | 86 | 1008.8 |
| 20260505163535 | 26 | 38 | 0.0 | 3.2 | 0.00 | 0.00 | 0.00 | 87 | 1008.8 |
| 20260505162535 | 25 | 277 | 0.0 | 6.4 | 0.00 | 0.00 | 0.00 | 87 | 1008.8 |
| 20260505160535 | 25 | 265 | 1.6 | 8.0 | 0.00 | 0.00 | 0.00 | 87 | 1008.7 |
| 20260505152535 | 25 | 5 | 1.6 | 8.0 | 0.00 | 0.00 | 0.00 | 88 | 1008.5 |
| 20260505150535 | 24 | 51 | 0.0 | 8.0 | 0.00 | 0.00 | 0.00 | 88 | 1008.3 |
| 20260505140535 | 23 | 68 | 0.0 | 4.8 | 0.00 | 0.00 | 0.00 | 90 | 1008.3 |